Torna al catalogo

HYDROGNSS-1

AttivoScienzaSSO
NORAD 66762·PAYLOAD·🇪🇺 EU

Lanciato Nov 28, 2025 da Vandenberg Space Force Base

Loading…

Prossimi Passaggi (prossime 24 ore)

TLE

AggiornatoSource: Space-Track

Epoca: Sep 14, 2026, 15:05 UTC

1 66762U 25276DA  26257.62869559  .00002176  00000-0  13068-3 0  9998
2 66762  97.4122 327.5076 0012491 101.2040 259.0595 15.11869975 43867

Traccia HYDROGNSS-1 in tempo reale con AllMySat

Download on the App Store